Retour au catalogue

STARLINK-34292

ActifCommunicationsVLEO
NORAD 64390·PAYLOAD·🇺🇸 United States

Lancé Jun 13, 2025 depuis Cape Canaveral Space Force Station

Loading…

Prochains Passages (prochaines 24 heures)

TLE

FraisSource: CelesTrak SupGP

Époque: Sep 15, 2026, 02:26 UTC

1 64390C 25127W   26258.10187500 -.00040261  00000+0 -14584-2 0  2580
2 64390  42.9993 190.2579 0001145 274.1468  66.9539 15.27594796    10

Suivez STARLINK-34292 en temps réel avec AllMySat

Download on the App Store